Location: Csohesd
(46.2500°N, 22.6167°E)
Time: 04:28:31
(UTC+00:00)

DMSP B5D2-2 - Pass Details

Date: 21 October 2021
Orbit: 789 x 806 km, 98.3° (Epoch: 30 November)

Event Time Altitude Azimuth Distance (km) Brightness Sun altitude
Rises 17:24:24 0° 14° (NNE) 3,321 7.2 -20.0°
Reaches altitude 10° 17:26:45 10° 16° (NNE) 2,383 6.4 -20.4°
Maximum altitude 17:32:02 77° 103° (ESE) 823 3.9 -21.3°
Drops below altitude 10° 17:37:14 10° 189° (S) 2,355 6.5 -22.2°
Sets 17:39:33 0° 191° (SSW) 3,277 7.3 -22.6°
